Regional Weather Roundup
Issued by NWS

Home | Current Version | Previous Version | Graphics & Text | Print | Product List | Glossary On
Versions: 1 2 3 4 5 6 7 8 9 10 11 12 13 14 15 16 17 18 19 20 21 22 23 24 25 26 27 28 29 30 31 32 33 34 35 36 37 38 39 40 41 42 43 44 45 46 47 48 49 50
276
ASUS45 KBOU 190010
RWRCO

WEATHER ROUNDUP FOR COLORADO
NATIONAL WEATHER SERVICE DENVER/BOULDER CO
500 PM MST SUN FEB 18 2018

NOTE: "FAIR" INDICATES FEW OR NO CLOUDS BELOW 12000 FEET WITH NO
SIGNIFICANT WEATHER AND/OR OBSTRUCTIONS TO VISIBILITY.

COZ001>005-013-030-031-190100-
...NORTHWEST COLORADO...

CITY           SKY/WX    TMP DP  RH WIND       PRES   REMARKS
CRAIG          FAIR      47  22  37 SW14      29.45F
HAYDEN         FAIR      44  21  40 SW15G22   29.46F
MEEKER         FAIR      48  21  34 SW18G26   29.46F
RANGELY        FAIR      56  17  21 SW24G33   29.41F
RABBIT EARS PA MOCLDY    30  16  55 SW13G29   29.56S WCI  20
STEAMBOAT SPGS FAIR      45  18  34 S3        29.47F
WALDEN         FAIR      37  16  41 SW15      29.52S
$$

COZ006>008-011-190100-
...WEST CENTRAL VALLEYS...

CITY           SKY/WX    TMP DP  RH WIND       PRES   REMARKS
GRAND JUNCTION FAIR      58  18  21 SW21G36   29.49F
MONTROSE       FAIR      54  17  23 SW29G41   29.57F
EAGLE          FAIR      49  16  26 SW17G29   29.55R
RIFLE          FAIR      54  18  24 SW20G33   29.50F
DELTA          FAIR      60  14  16 SW30G40   29.54F
NUCLA          FAIR      54  19  26 S23G44    29.62F
$$

COZ017>023-064>068-190100-
...SOUTHWEST COLORADO...

CITY           SKY/WX    TMP DP  RH WIND       PRES   REMARKS
DURANGO        FAIR      49  20  31 CALM      29.76F
CORTEZ         FAIR      55  14  19 SW20      29.70F
PAGOSA SPRINGS FAIR      45  14  29 SW6       29.80F
TELLURIDE      FAIR      39  16  38 SE16G30   29.75F
WOLF CREEK PAS FAIR      21  14  73 S33G47    29.83S HAZE    WCI   2
$$

COZ009-010-012-014-032>034-037-058>063-190100-
...CENTRAL COLORADO...

CITY           SKY/WX    TMP DP  RH WIND       PRES   REMARKS
ASPEN          FAIR      45  12  26 CALM      29.58S
BUENA VISTA    FAIR      48  -3  12 SW22G32   29.56R
COPPER MTN     FAIR      32   7  34 SW10G24   29.67S WCI  24
BERTHOUD PASS  FAIR      25  14  63 W25G40    29.64S WCI   9
COTTONWOOD PAS FAIR      45  -2  14 W37G60    29.56R
GUNNISON       FAIR      47   9  21 W14G21    29.63F
GRANBY         FAIR      42  16  35 W12G22    29.56S
KREMMLING      FAIR      48  18  29 SW16G30   29.53S
LEADVILLE      FAIR      33   7  33 SW10G25   29.64S WCI  25
MONARCH PASS   FAIR      28   7  40 W31G43    29.82S WCI  12
SALIDA         FAIR      52   5  15 SW9G17    29.67F
SUNLIGHT       FAIR      27  18  69 SW20G38   29.66S WCI  13
WILKERSON PASS FAIR      32  -2  23 SW18G28   29.68S WCI  20
$$

COZ069>075-190100-
...SAN LUIS VALLEY/SANGRE DE CRISTO MOUNTAINS...

CITY           SKY/WX    TMP DP  RH WIND       PRES   REMARKS
ALAMOSA        FAIR      48  11  22 SW31G38   29.71R
DEL NORTE      FAIR      43  15  32 W28G40    29.70R
LA VETA PASS   FAIR      34  10  37 S52G71    29.71F WCI  17
SAGUACHE       FAIR      48  10  21 W21G28    29.66R
$$

COZ035-036-038>040-190100-
...NORTHERN COLORADO FRONT RANGE...

CITY           SKY/WX    TMP DP  RH WIND       PRES   REMARKS
DENVER INTL AP FAIR      63  13  14 CALM      29.41S
AURORA         PTCLDY    62   5  10 SW16G24   29.43R
FRONT RANGE AP NOT AVBL
ERIE MUNI ARPT FAIR      63   7  11 NW9       29.44S
BOULDER MUN AP FAIR      61  14  16 W14       29.38F
CENTENNIAL     FAIR      61   7  11 SW20G31   29.44S
BROOMFIELD     PTCLDY    64   9  11 SW8G23    29.42
FORT COLLINS   FAIR      60  14  16 W8        29.42R
LONGMONT       FAIR      64  12  13 W15       29.41S
$$

COZ041-046-047-076>085-087-088-190100-
...PIKES PEAK/PALMER DIVIDE AND SOUTHERN FOOTHILLS...

CITY           SKY/WX    TMP DP  RH WIND       PRES   REMARKS
COLO. SPRINGS  MOCLDY    62   3   9 W13G31    29.49F
A. F. ACADEMY  FAIR      58  -6   7 SW13G36   29.50R
SCHRIEVER AFB  NOT AVBL
CHEYENNE MTN   FAIR      54   4  13 NW10      29.46
ELLICOTT         N/A    N/A N/A N/A SW18G28   29.50R
FALCON         FAIR      58  -5   7 W22G32    29.54R
FORT CARSON    FAIR      61   8  12 SW21G29   29.47R
LIMON          FAIR      61   3  10 SW12      29.45R
MONUMENT HILL  FAIR      54   1  12 W22G32    29.53S
CANON CITY     CLEAR     63  14  15 SW16G31   29.49R
WALSENBURG     NOT AVBL
TRINIDAD       FAIR      61   9  12 W24G33    29.58R
$$

COZ042>045-048>051-090-091-190100-
...NORTHEAST COLORADO...

CITY           SKY/WX    TMP DP  RH WIND       PRES   REMARKS
GREELEY ARPT   FAIR      61  15  16 NW14      29.41S
AKRON          FAIR      62  17  17 W8        29.40S
BURLINGTON     FAIR      62  16  16 SW17      29.42F
WRAY           FAIR      64  18  16 S8        29.37F
YUMA           NOT AVBL
STERLING       FAIR      52  28  40 NE24G36   29.43R
HOLYOKE        FAIR      52  32  46 NE17G26   29.47R
FORT MORGAN    FAIR      63   9  12 W14       29.40R
$$

COZ086-089-092>099-190100-
...SOUTHEAST COLORADO...

CITY           SKY/WX    TMP DP  RH WIND       PRES   REMARKS
PUEBLO         FAIR      67   8  10 E6        29.45S
LA JUNTA       FAIR      69   5   8 W24G33    29.46S
LAMAR          LGT RAIN  71   6   8 W18G29    29.43F
SPRINGFIELD      N/A     66   6   9 W20G29    29.52S
$$




USA.gov is the U.S. government's official web portal to all federal, state and local government web resources and services.